Regional & State Weather Roundups


181 
ASCA44 KEWX 212220
RWRMX 
LATIN AMERICA AND CARIBBEAN REGIONAL WEATHER ROUNDUP
NATIONAL WEATHER SERVICE AUSTIN/SAN ANTONIO TX
400 PM CST WED FEB 21 2018
NOTE: "FAIR" INDICATED FEW OR NO CLOUDS BELOW 12,000 FEET WITH NO
SIGNIFICANT WEATHER AND/OR OBSTRUCTIONS TO VISIBILITY.
BAJA CALIFORNIA
  
CITY           SKY/WX    TMP DP  RH WIND       PRES   REMARKS
LA PAZ         MOSUNNY   70  46  43 N13       30.07F                  
NORTHWESTERN MEXICO
  
CITY           SKY/WX    TMP DP  RH WIND       PRES   REMARKS
CULIACAN       SUNNY     81  52  36 W8        30.00F                  
DURANGO        PTSUNNY   70  27  19 S20       30.18F                  
GUAYMAS        SUNNY     64  45  48 SW17      30.04F                  
HERMOSILLO     SUNNY     68  28  22 SW6       30.09F                  
CD. JUAREZ     MOSUNNY   61  28  29 SE9       30.03F                  
LOS MOCHIS     SUNNY     70  45  40 NW20      30.07                   
OBREGON        SUNNY     68  39  34 SW10      30.05F                  
NORTHEASTERN MEXICO
  
CITY           SKY/WX    TMP DP  RH WIND       PRES   REMARKS
CHIHUAHUA      SUNNY     72  25  17 SW10G28   30.01F                  
MATAMOROS      PTSUNNY   79  73  83 SE16      29.93F                  
MONCLOVA         N/A    N/A N/A N/A MISG        N/A                   
MONTERREY      SUNNY     86  52  30 SE10      29.93F                  
NUEVO LAREDO   SUNNY     63  50  63 N23       30.02S                  
PIEDRAS NEGRAS PTSUNNY   54  39  58 NW23      30.13S                  
REYNOSA        PTSUNNY   84  68  58 SE14G25   29.94                   
SALTILLO       MOSUNNY   75  48  38 N17       30.15                   
TORREON        MOSUNNY   84  34  16 NW8       29.99F                  
CD. VICTORIA   MOSUNNY   91  57  31 S12       29.91F HX  90           
WESTERN MEXICO
  
CITY           SKY/WX    TMP DP  RH WIND       PRES   REMARKS
AGUASCALIENTES PTSUNNY   75  32  20 SW12      30.23F                  
COLIMA         MOSUNNY   82  64  54 SW12      30.05F                  
DEL BAJIO      MOSUNNY   79  37  22 SE5       30.25F                  
GUADALAJARA    PTSUNNY   79  39  24 SE5       30.15F                  
MANZANILLO     MOSUNNY   86  75  70 SW9       29.93F HX  95           
P. VALLARTA    SUNNY     81  66  61 S10       29.96                   
URUAPAN        SUNNY     75  45  33 S9        30.18F                  
ZACATECAS      PTSUNNY   73  34  23 SW12      30.24F                  
CENTRAL MEXICO
  
CITY           SKY/WX    TMP DP  RH WIND       PRES   REMARKS
CUERNAVACA     MOSUNNY   86  41  20 SE3       30.07                   
MEXICO CITY    PTSUNNY   73  37  27 S5        30.26F HAZE             
MORELIA        MOSUNNY   81  37  21 S3        30.19F                  
POZA RICA      MOSUNNY   86  72  62 E7        29.96F HX  92           
PUEBLA         MOSUNNY   75  41  29 S10       30.27F                  
QUERETARO      MOSUNNY   79  34  19 W14       30.25F                  
S. LUIS POTOSI MOSUNNY   81  30  16 SE16      30.18F                  
TAMPICO        PTSUNNY   79  73  83 MISG      29.94F                  
TOLUCA         MOSUNNY   72  36  26 S10       30.34F                  
SOUTHERN MEXICO
  
CITY           SKY/WX    TMP DP  RH WIND       PRES   REMARKS
ACAPULCO       SUNNY     84  70  61 W9        29.90F                  
B. DE HUATULCO MOSUNNY  N/A N/A N/A S14       29.93F                  
OAXACA         PTSUNNY   82  41  23 SE5       30.13F                  
P. ESCONDIDO   SUNNY     82  70  65 S7        30.01F                  
VERACRUZ       SUNNY     82  72  69 E12       29.92F                  
ZIHUATANEJO    SUNNY     86  73  66 W12       29.92F HX  93           
YUCATAN PENINSULA
  
CITY           SKY/WX    TMP DP  RH WIND       PRES   REMARKS
CAMPECHE       MOSUNNY   91  68  46 E17G29    29.95S HX  95           
CANCUN         MOSUNNY   82  73  74 SE10      30.12S                  
CHETUMAL       MOSUNNY   84  70  61 E16       30.05F                  
CD. DEL CARMEN SUNNY     90  66  45 SE15      29.94S HX  92           
COZUMEL        PTSUNNY   82  72  69 E16       30.09F                  
MERIDA         MOSUNNY   93  61  33 SE12      30.01F HX  93           
MINATITLAN     SUNNY     86  75  70 N12       29.87F HX  95           
TAPACHULA      MOSUNNY   88  70  55 W12       29.89F HX  92           
TUX. GUTIERREZ MOSUNNY   95  55  26 CALM      29.89F HX  93           
VILLAHERMOSA   MOSUNNY   90  72  55 NE15      29.92F HX  96           
CENTRAL AMERICA
  
CITY           SKY/WX    TMP DP  RH WIND       PRES   REMARKS
BELIZE CITY    MOSUNNY   79  73  83 E8        30.03S                  
MANAGUA        PTCLDY    75  72  88 E12       29.89R                  
CARIBBEAN
  
CITY           SKY/WX    TMP DP  RH WIND       PRES   REMARKS
ARUBA          MOSUNNY   81  72  74 E22       29.97R                  
CURACAO        PTCLDY    75  72  88 SE9       30.00S                  
KINGSTON       MOSUNNY   84  73  70 SE20      30.00S HX  91           
NASSAU         MOSUNNY   79  64  61 NE16      30.30S                  
SAN JUAN       PTCLDY    75  72  88 E22G33    30.15R                  
SANTO DOMINGO  PTCLDY    81  70  69 E5        30.12R                  
ST. CROIX      MOCLDY    77  70  78 E17G26    30.13R                  
ST. KITTS      PTCLDY    75  68  78 NE24      30.12R                  
ST. MAARTEN    PTCLDY    77  64  65 E15       30.12S                  
ST. THOMAS     LGT RAIN  73  72  94 E15G29    30.14R FOG              
$$